FALCON 9 R/B, 54028

Orbit data source: Space-Track

FALCON 9 R/B, 54028 is space debris in HEO originally from a launch on Sat, 08 Oct 2022 UTC launched from the Air Force Eastern Test Range (AFETR). Debris objects in space refer to the collection of defunct objects orbiting the Earth. Examples of debris include non-operational satellites, rocket bodies, and fragments generated from explosions, collisions, or faulty payload assembly.

Loading next visibility...
Identifier
54028, 2022-128C
Orbit
HEO
Country
Flag of USUS
Related business
Manufacturer
SpaceX
Mission
Spacecraft
Bus & Motor
F9ST2, Unknown motor
Mass
~4,000 kg wet, ~4,000 kg dry
Launch date (UTC)
2022-10-08 (3 years ago)
Launch vehicle
Unknown
Launch site
Air Force Eastern Test Range (AFETR)
Object type
Payload
Rocket body
Debris
Shape & HBR
Cyl, 7.8 m
Radar Cross Section
39.980 m², Large (>1 m²)

Expand to show TLE details & history
Last TLE update: 14 hours ago

TLE from 14 hours ago
0 FALCON 9 R/B
1 54028U 22128C   26062.70541279  .00041589  00000-0  23793-2 0  9998
2 54028  26.7219 267.4022 5764532  57.7272 345.5984  4.45777740 52722
Epoch: 2026-03-03T16:55Z
TLE epoch observation values (Epoch: 2026-03-03T16:55:47.665Z)
Latitude
-0.00005°
Longitude
-148.04024°
Altitude
1,572.699 km
Speed
8.643 km/s
True Right ascension
17h 49m 33s
True Declination
0° 00' 00"
Sunlit
Object was in daylight at epoch
Visualization orbit readout
Latitude
Unknown
Longitude
Unknown
Altitude
Unknown
Speed
Unknown
Apparent Right ascension
Unknown
Apparent Declination
Unknown
Sunlit
N/A
Visualization observer readout
Local Sidereal Time
10:42:11
Azimuth
Unknown
Elevation
Unknown
Doppler factor
Unknown
Orbital elements
Apogee altitude
18,212.59 km
Perigee altitude
228.671 km
Semi-major axis
15,598.768 km
Eccentricity
0.57645
Inclination
26.7219°
RAAN
267.4022°
Arg. of periapsis
57.7272°
True anomaly
302.3978°
Mean anomaly
345.5984°
Eccentric anomaly
328.1881°
Mean motion
1.11406 °/min
Orbital period
323.14 mins
BSTAR
0.0023793
Loading maneuver chart data...
Computing Atmospheric mass density...
Loading historical data...
Loading historical data...
Loading historical data...
Loading historical data...
Loading historical data...
Loading historical data...
Loading historical data...
Other satellites on launch #128 in the year 2022 (2022-10-08 UTC)

Documentation

Showing up to 5 results
|